Regional Weather Roundup
Issued by NWS Cleveland, OH

Home | Current Version | Previous Version | Graphics & Text | Print | Product List | Glossary On
Versions: 1 2 3 4 5 6 7 8 9 10 11 12 13 14 15 16 17 18 19 20 21 22 23 24 25 26 27 28 29 30 31 32 33 34 35 36 37 38 39 40 41 42 43 44 45 46 47 48 49 50
000
ASUS41 KCLE 060100
RWRCLE
OHIO REGIONAL WEATHER ROUNDUP
NATIONAL WEATHER SERVICE WILMINGTON, OH
900 PM EDT SUN JUL 05 2015

NOTE: "FAIR" INDICATES FEW OR NO CLOUDS BELOW 12,000 FEET WITH NO
SIGNIFICANT WEATHER AND/OR OBSTRUCTIONS TO VISIBILITY.

OHZ001>008-015>018-024>027-034-035-043-044-060200-
   NORTHWEST OHIO

CITY           SKY/WX    TMP DP  RH WIND       PRES   REMARKS
DEFIANCE       MOCLDY    75  62  64 E3        30.07S
FINDLAY        CLOUDY    75  61  61 SE5       30.08R
TOLEDO EXPRESS MOCLDY    71  59  65 E5        30.07F
TOLEDO EXEC    MOCLDY    71  58  63 NE3       30.09S
LIMA           CLOUDY    70  64  81 E3        30.08S
$$

OHZ009>014-019>023-028>033-038-089-060200-
   NORTHEAST OHIO

CITY           SKY/WX    TMP DP  RH WIND       PRES   REMARKS
CLE-HOPKINS    CLOUDY    70  62  76 N3        30.11S
CLE-LAKEFRONT  CLOUDY    71  66  84 NE6       30.07F
CUY CO. ARPT   CLOUDY    72  64  78 E7        30.10F
LORAIN-ELYRIA  CLOUDY    69  61  75 NE3       30.09F
ASHTABULA      CLOUDY    69  61  75 CALM      30.12S
AKRON-CANTON   CLOUDY    73  57  57 E5        30.10S
WOOSTER        NOT AVBL
MANSFIELD      MOCLDY    69  62  78 CALM      30.11S
YOUNGSTOWN     CLOUDY    67  58  72 E3        30.11S
$$

OHZ042-051>053-060>062-070>072-077>081-060200-
  SOUTHWEST OHIO

CITY           SKY/WX    TMP DP  RH WIND       PRES   REMARKS
CINC-COVINGTON MOCLDY    74  60  61 N6        30.08R
CINC-LUNKEN    CLOUDY    70  66  87 CALM      30.07R
HAMILTON       CLOUDY    70  66  87 CALM      30.08R
DAYTON         NOT AVBL
WRIGHT-PAT AFB CLOUDY    73  62  68 W2        30.07S
DAYTON GENERAL CLOUDY    73  62  68 CALM      30.07S
WILMINGTON     CLOUDY    71  64  78 NE3       30.07F
$$

OHZ036-037-039>041-045>050-054>059-063>069-073>076-082>088-060200-
  CENTRAL AND SOUTHEAST OHIO

CITY           SKY/WX    TMP DP  RH WIND       PRES   REMARKS
COLUMBUS       CLOUDY    73  63  70 NE6       30.06F
OSU AIRPORT    CLOUDY    72  62  71 N6        30.07F
BOLTON FIELD   NOT AVBL
RICKENBACK AFB NOT AVBL
NEWARK         MOCLDY    75  64  68 N3        30.07S
MARION         CLOUDY    73  64  73 CALM      30.09S
LANCASTER      CLOUDY    72  67  84 N3        30.06F
ZANESVILLE     CLOUDY    75  63  66 CALM      30.07S
NEW PHILLY     CLOUDY    73  63  70 NE3       30.09S
$$



USA.gov is the U.S. government's official web portal to all federal, state and local government web resources and services.